Location: Lafig�re
(44.4503°N, 4.0357°E)
Time: 17:41:22
(UTC+00:00)

S-56A Canister/Altair - Pass Details

Date: 29 January 2021
Orbit: 631 x 2501 km, 38.9° (Epoch: 04 March)

Event Time Altitude Azimuth Distance (km) Brightness Sun altitude
Rises 02:22:40 0° 256° (WSW) 3,172 - -49.6°
Reaches altitude 10° 02:25:18 10° 249° (WSW) 2,121 - -49.2°
Maximum altitude 02:29:41 42° 179° (S) 900 - -48.5°
Drops below altitude 10° 02:33:55 10° 107° (ESE) 2,040 - -47.8°
Sets 02:36:24 0° 101° (E) 3,034 - -47.4°
